Total_Precipitation_Accumulation
1.04 1.00 0.93 0.93 0.85 0.97 1.13 1.23 1.20 1.14 1.15 1.11 1.00 1.09 1.17 1.25 1.28 1.36 1.51 1.66 1.93 2.39 2.72 2.69 2.38 2.09 1.98 1.95 2.00 2.01 2.05 2.18 2.18 2.17 2.21 2.14 2.08 1.95 1.89 1.87 1.79 1.72 1.81
1.02 1.02 0.99 1.02 0.99 1.04 1.18 1.20 1.12 1.18 1.28 1.19 1.02 1.02 1.13 1.20 1.28 1.30 1.36 1.53 1.71 1.96 2.52 2.85 2.74 2.49 2.43 2.28 2.35 2.33 2.23 2.04 1.99 2.08 2.09 2.09 2.10 1.94 1.83 1.76 1.72 1.64 1.65
0.91 0.96 0.98 0.98 1.03 1.15 1.22 1.28 1.12 1.17 1.18 1.12 1.07 1.04 1.05 1.10 1.12 1.17 1.15 1.23 1.38 1.63 2.12 2.57 2.83 2.85 2.89 2.77 2.64 2.48 2.22 1.99 1.94 1.97 2.00 1.92 1.98 1.92 1.80 1.83 1.72 1.73 1.68
0.85 0.99 1.01 0.98 1.01 1.17 1.31 1.39 1.30 1.29 1.28 1.23 1.20 1.14 1.04 1.12 1.05 1.08 1.12 1.12 1.31 1.32 1.65 2.01 2.28 2.53 2.86 2.83 2.62 2.50 2.24 1.88 1.78 1.86 1.90 1.76 1.81 1.86 1.73 1.82 1.74 1.67 1.61
0.94 1.13 1.23 1.22 1.21 1.25 1.28 1.28 1.38 1.41 1.41 1.38 1.29 1.24 1.15 1.12 1.17 1.08 1.12 1.19 1.19 1.26 1.46 1.60 1.72 1.81 2.20 2.44 2.51 2.67 2.52 2.03 1.75 1.80 1.85 1.67 1.67 1.83 1.70 1.67 1.64 1.51 1.44
1.28 1.46 1.46 1.54 1.59 1.49 1.49 1.45 1.50 1.47 1.41 1.47 1.34 1.22 1.16 1.10 1.22 1.28 1.26 1.29 1.28 1.25 1.55 1.69 1.64 1.42 1.64 1.97 2.25 2.59 2.75 2.37 2.01 1.86 1.92 1.80 1.69 1.86 1.68 1.62 1.63 1.40 1.33
1.58 1.82 1.80 1.89 1.96 1.87 1.83 1.83 2.06 2.01 1.73 1.54 1.62 1.45 1.28 1.16 1.33 1.41 1.36 1.44 1.51 1.58 1.72 1.74 1.62 1.43 1.28 1.37 1.61 2.11 2.69 2.58 2.34 2.08 2.04 1.94 1.73 1.70 1.51 1.50 1.53 1.44 1.30
1.50 1.64 1.91 2.05 2.03 2.13 2.25 2.22 2.59 2.73 2.25 1.82 1.87 2.07 1.83 1.66 1.48 1.35 1.39 1.44 1.59 1.79 1.84 1.70 1.56 1.37 1.22 1.22 1.07 1.43 2.03 2.38 2.42 2.29 2.13 1.93 1.75 1.59 1.52 1.56 1.53 1.58 1.44
1.47 1.58 1.74 1.89 1.93 2.05 2.21 2.31 2.65 3.18 2.94 2.31 2.08 2.44 2.22 2.01 1.90 1.58 1.40 1.42 1.52 1.80 2.05 1.96 1.72 1.51 1.31 1.31 1.17 1.17 1.39 1.70 2.23 2.45 2.38 2.13 1.97 1.72 1.62 1.74 1.58 1.71 1.73
1.35 1.44 1.58 1.71 1.84 1.88 2.03 2.13 2.26 2.81 3.21 2.89 2.57 2.24 1.94 1.90 2.06 1.99 1.64 1.51 1.54 1.67 1.88 1.87 1.74 1.67 1.50 1.36 1.24 1.12 1.18 1.33 1.88 2.32 2.56 2.48 2.28 2.02 1.99 2.16 1.90 1.77 1.77
1.45 1.45 1.59 1.66 1.69 1.76 1.88 2.21 2.48 2.76 3.01 3.00 2.93 2.73 2.46 2.19 1.86 2.08 2.09 1.81 1.69 1.64 1.69 1.72 1.65 1.65 1.62 1.53 1.58 1.34 1.17 1.18 1.42 1.90 2.42 2.75 2.60 2.37 2.46 2.55 2.18 2.01 1.94
1.58 1.61 1.65 1.66 1.64 1.69 1.80 2.05 2.34 2.56 2.87 3.07 2.99 2.81 2.69 2.56 2.34 2.24 2.09 1.97 1.96 1.78 1.64 1.59 1.50 1.51 1.61 1.73 1.69 1.66 1.30 1.09 1.10 1.41 1.77 2.18 2.46 2.54 2.73 2.76 2.49 2.45 2.30
1.51 1.53 1.61 1.72 1.80 1.84 1.96 2.14 2.29 2.21 2.41 2.80 2.83 2.69 2.61 2.42 2.39 2.46 2.36 2.07 1.94 1.65 1.51 1.46 1.40 1.49 1.46 1.50 1.71 1.87 1.43 1.15 0.98 1.22 1.41 1.53 1.77 2.14 2.58 2.83 2.86 2.88 2.75
1.45 1.38 1.41 1.51 1.63 1.82 1.88 1.93 1.96 1.93 2.03 2.29 2.39 2.58 2.68 2.45 2.35 2.26 2.22 2.26 2.04 1.75 1.56 1.43 1.32 1.35 1.35 1.38 1.60 1.76 1.40 1.22 0.93 0.92 1.06 1.24 1.34 1.51 1.84 2.27 2.68 2.88 2.95
1.18 1.10 1.10 1.16 1.24 1.31 1.39 1.54 1.64 1.77 1.81 1.93 2.09 2.23 2.40 2.52 2.45 2.24 2.18 2.16 2.14 1.94 1.70 1.56 1.41 1.22 1.30 1.42 1.64 1.44 1.34 1.32 1.11 0.97 0.91 0.97 1.10 1.18 1.32 1.48 1.73 2.08 2.39
1.11 1.02 0.98 0.95 0.94 0.91 0.94 1.14 1.34 1.47 1.56 1.71 1.90 2.04 2.09 2.16 2.34 2.30 2.12 2.09 2.02 1.90 1.76 1.56 1.45 1.31 1.47 1.40 1.56 1.39 1.39 1.46 1.18 1.08 0.98 0.92 0.92 0.89 0.87 0.94 1.00 1.13 1.48
1.10 1.07 0.97 0.92 1.01 1.01 0.97 1.03 1.09 1.17 1.23 1.36 1.51 1.64 1.80 2.05 2.35 2.37 2.30 2.18 2.05 1.92 1.71 1.54 1.35 1.27 1.57 1.67 1.60 1.48 1.45 1.41 1.18 1.13 1.02 0.92 0.87 0.81 0.75 0.68 0.69 0.75 0.91
0.76 0.85 0.94 0.88 0.87 0.91 0.93 0.99 1.01 1.06 1.10 1.20 1.30 1.43 1.60 1.87 2.20 2.41 2.50 2.38 2.21 2.07 1.95 1.80 1.48 1.24 1.35 1.68 1.81 1.74 1.54 1.39 1.25 1.18 1.04 0.92 0.86 0.77 0.71 0.68 0.67 0.67 0.68
0.60 0.64 0.73 0.73 0.82 0.90 0.94 0.97 0.97 1.01 1.04 1.12 1.26 1.32 1.37 1.56 1.74 1.94 2.13 2.27 2.25 2.22 2.20 1.97 1.66 1.40 1.33 1.45 1.70 1.71 1.63 1.62 1.40 1.32 1.31 1.17 1.03 0.93 0.82 0.73 0.71 0.69 0.65
0.66 0.71 0.82 0.85 0.79 0.78 0.84 0.95 0.99 0.95 0.93 0.96 1.04 1.13 1.22 1.26 1.43 1.56 1.67 1.87 2.09 2.33 2.40 2.24 1.97 1.64 1.51 1.40 1.50 1.65 1.72 1.68 1.60 1.42 1.38 1.26 1.25 1.18 1.06 0.91 0.78 0.71 0.71
0.72 0.74 0.83 0.92 0.97 0.92 0.89 0.97 0.95 0.94 0.94 0.91 0.95 0.95 1.02 1.04 1.11 1.28 1.33 1.55 1.88 2.16 2.26 2.32 2.19 1.87 1.61 1.43 1.21 1.32 1.58 1.80 1.81 1.73 1.72 1.48 1.34 1.21 1.13 1.09 1.01 0.87 0.78
0.59 0.58 0.61 0.67 0.76 0.82 1.05 1.01 0.83 0.78 0.84 0.89 0.93 0.93 0.95 0.89 0.87 0.93 1.06 1.18 1.48 1.70 1.85 1.93 1.95 1.79 1.57 1.44 1.39 1.34 1.41 1.56 1.61 1.51 1.56 1.63 1.56 1.40 1.31 1.19 1.20 1.22 1.13
0.49 0.46 0.46 0.47 0.52 0.70 0.80 0.63 0.61 0.64 0.77 0.88 0.95 0.99 0.96 0.90 0.92 0.93 0.94 0.95 1.02 1.20 1.42 1.63 1.66 1.56 1.62 1.53 1.46 1.35 1.35 1.37 1.35 1.45 1.54 1.61 1.59 1.48 1.41 1.39 1.42 1.31 1.25
0.41 0.41 0.45 0.52 0.54 0.58 0.66 0.54 0.51 0.59 0.80 0.92 0.92 0.88 0.95 0.96 0.98 1.04 0.96 1.02 0.98 0.96 1.06 1.10 1.24 1.45 1.60 1.77 1.74 1.64 1.64 1.57 1.48 1.58 1.61 1.56 1.46 1.38 1.29 1.27 1.33 1.20 1.11
0.47 0.48 0.58 0.64 0.58 0.52 0.57 0.57 0.60 0.72 0.86 0.94 0.90 0.91 0.98 1.02 1.15 1.20 1.09 1.14 1.11 1.08 1.05 1.16 1.25 1.36 1.45 1.56 1.71 1.75 1.71 1.68 1.53 1.46 1.48 1.43 1.32 1.33 1.32 1.20 1.13 1.13 1.03
0.41 0.48 0.51 0.48 0.48 0.55 0.63 0.60 0.69 0.85 0.99 1.09 1.05 1.04 1.23 1.19 1.18 1.12 1.08 1.22 1.19 1.05 0.98 1.02 1.08 1.17 1.20 1.30 1.43 1.48 1.61 1.68 1.58 1.42 1.24 1.23 1.23 1.27 1.31 1.20 1.08 1.01 0.98